User: anonymous   Login
Location: Unspecified
(0.0000°N, 0.0000°E)
Time: 14:59:23
(UTC+00:00)
Language:

GSAT 7 - Orbit

View from above orbital plane
View from above orbital plane
View from above satellite
View from above satellite

Ground track
Ground track

The orbit data is extracted from the following two-line orbital elements,

1 39234U 13044B   16235.87314290 -.00000098  00000-0  00000+0 0  9991
2 39234   0.0692 270.0395 0009178   3.9209  85.9329  1.00271416 10957
Epoch (UTC): 22 August 2016 20:57:19
Eccentricity: 0.0009178
inclination: 0.0692°
perigee height: 35747 km
apogee height: 35825 km
right ascension of ascending node: 270.0395°
argument of perigee: 3.9209°
revolutions per day: 1.00271416
mean anomaly at epoch: 85.9329°
orbit number at epoch: 1095

The dashed part of the orbit path shows where the satellite is in the earth's shadow,  

DLR